813  
ASUS43 KLMK 202310  
RWRKY  
KENTUCKY REGIONAL WEATHER ROUNDUP  
NATIONAL WEATHER SERVICE LOUISVILLE KY  
600 PM EST WED FEB 20 2019  
 
NOTE "FAIR" INDICATES FEW OR NO CLOUDS BELOW 12,000 FEET  
WITH NO SIGNIFICANT WEATHER AND/OR S TO VISIBILITY
.  
 
KYZ001>023-026-027-061>063-070>075-210000-  
WESTERN AND SOUTH CENTRAL KENTUCKY  
 
CITY SKY/WX TMP DP RH WIND PRES REMARKS
 
PADUCAH CLOUDY 48 43 82 SW6 29.89R  
HENDERSON CLOUDY 46 44 93 W9 29.89R  
OWENSBORO CLOUDY 47 46 97 W6 29.89R FOG  
HOPKINSVILLE DRIZZLE 50 50 100 W10 29.91R  
BOWLING GREEN CLOUDY 55 52 89 SW9 29.87R  
GLASGOW CLOUDY 53 52 96 SW8G16 29.88R  

 
 
KYZ024-025-028>034-038-045-046-053-210000-  
NORTH CENTRAL KENTUCKY  
 
CITY SKY/WX TMP DP RH WIND PRES REMARKS
 
LOUISVILLE/SDF DRIZZLE 54 51 90 SW7 29.83R FOG  
LOUISVILLE/LOU CLOUDY 50 48 93 S3 29.82R FOG  
FORT KNOX CLOUDY 53 53 100 SW8 29.83S FOG  

 
 
KYZ035>037-039>044-047>052-055>060-089>105-210000-  
NORTHEAST KENTUCKY  
 
CITY SKY/WX TMP DP RH WIND PRES REMARKS
 
LEXINGTON RAIN 56 53 90 S13 29.83R FOG  
COVINGTON LGT RAIN 48 47 96 SW6 29.79S VSB 1  
FRANKFORT CLOUDY 57 54 89 SW12 29.81R FOG  

 
 
KYZ054-064>069-076>088-106>120-210000-  
SOUTHEAST KENTUCKY  
 
CITY SKY/WX TMP DP RH WIND PRES REMARKS
 
JACKSON CLOUDY 56 54 93 MISG 29.85R  
LONDON CLOUDY 54 32 43 S16G25 29.87F  
SOMERSET CLOUDY 54 52 94 S9G16 29.90R  
MIDDLESBORO LGT RAIN 50 50 100 W5 29.96S  
MONTICELLO CLOUDY 56 52 86 VRB7 29.89R  

 
 
 
 
CLICK HERE TO GO TO PREVIOUS BULLETINS.

The Nexlab KY Page Main Text Page